Lid_Strength_Index
2 2 2 2 2 2 3 3 7 1 1 7 7 9 7 5 6 5 6 6 8 10 10 10 10 9 9 7 6 10 8 11 14 11 7 6 7 9 9 12 13 11 11 11
2 2 2 2 2 2 3 5 4 0 1 10 10 7 7 6 6 7 7 7 7 7 9 12 12 10 6 6 7 10 10 12 15 13 10 8 9 8 8 8 9 12 13 12
3 2 2 2 2 2 3 4 8 4 4 5 8 9 8 8 5 6 6 6 6 9 10 7 9 9 8 6 7 7 8 12 13 17 15 13 13 9 8 9 12 11 11 10
4 3 2 2 2 2 3 4 6 5 9 8 8 7 8 9 9 6 5 7 7 9 10 9 10 9 8 6 7 8 10 14 12 11 11 12 13 12 9 9 9 11 10 9
4 4 2 2 2 2 3 5 7 6 7 7 8 8 8 9 8 7 8 9 8 7 10 10 11 9 8 9 8 9 9 15 12 13 11 12 14 11 10 8 8 8 9 9
4 4 4 2 2 2 4 4 4 6 8 7 9 8 8 8 7 6 6 7 8 9 8 6 6 6 6 7 8 9 10 13 14 15 12 13 15 11 10 9 8 8 10 8
4 4 4 3 2 2 3 4 4 7 10 8 8 8 7 8 7 8 6 6 8 6 3 4 5 6 6 6 7 6 10 10 13 16 15 20 11 7 7 8 7 7 7 8
4 4 4 4 3 2 3 3 4 7 10 8 7 8 8 7 6 7 6 6 4 3 5 9 11 12 10 8 7 7 7 10 15 17 17 14 12 10 9 9 9 8 7 7
3 4 4 4 4 2 2 3 2 5 9 8 6 7 7 9 8 7 6 4 3 4 8 10 14 17 13 13 11 6 7 8 13 14 18 20 14 9 7 7 14 7 7 7
3 3 4 4 4 4 3 3 1 5 8 7 6 8 9 6 7 9 7 6 6 5 9 13 15 14 10 15 15 13 10 11 14 15 17 15 10 8 6 14 14 7 6 6
3 2 3 4 4 4 4 3 2 3 7 5 4 4 6 7 7 10 7 7 7 8 11 12 12 12 11 12 11 13 14 14 14 13 16 18 8 8 12 10 7 6 6 6
3 2 3 4 4 4 4 5 1 0 5 6 3 3 2 2 4 6 7 7 7 7 10 9 10 12 12 12 16 9 15 12 14 13 14 9 8 8 6 6 6 6 5 5
2 2 2 3 4 4 5 6 3 3 5 5 4 4 2 0 2 2 8 6 5 6 5 8 9 13 10 14 14 12 9 7 12 12 10 9 8 6 6 5 5 4 5 5
3 2 2 3 3 4 5 6 3 3 5 8 5 1 3 1 1 2 4 5 4 4 5 8 9 11 7 11 11 12 9 9 10 11 9 8 7 6 5 5 4 4 4 4
3 3 2 3 3 4 4 4 3 2 4 8 6 3 2 1 1 3 4 5 6 7 7 8 10 7 8 8 9 11 8 10 11 11 7 7 7 5 5 5 5 4 4 4
3 3 2 3 3 2 3 6 3 2 2 6 9 3 3 2 2 3 4 4 6 6 7 7 6 5 7 10 13 7 6 5 5 8 5 6 5 4 4 5 5 4 4 4
3 3 3 3 3 2 3 5 5 3 3 6 8 7 4 3 3 3 4 3 4 5 6 8 7 7 6 9 11 8 6 5 5 4 5 6 5 6 4 5 4 4 3 4
3 3 3 3 2 2 2 2 4 3 5 5 9 8 6 3 6 7 4 6 5 5 6 6 7 7 7 10 7 6 5 5 6 6 5 5 4 4 4 4 5 4 4 4
4 4 3 2 2 3 3 3 3 2 5 8 8 10 12 3 6 5 5 5 9 5 8 7 6 8 10 8 7 6 5 7 6 6 6 6 6 5 5 4 5 5 4 4
4 3 3 5 3 2 2 3 6 7 7 7 8 5 8 5 5 7 7 6 8 11 8 5 8 10 6 5 4 5 5 5 5 7 7 6 7 6 5 4 4 5 4 4
4 5 4 3 2 2 4 6 8 7 9 7 6 6 7 4 7 8 6 9 7 11 9 9 10 11 7 4 5 4 4 4 4 5 4 4 5 5 6 5 4 4 4 4
6 6 5 4 5 5 8 9 7 8 9 6 6 7 5 5 4 8 7 10 8 12 7 9 11 8 5 4 4 4 4 4 5 4 4 4 4 5 5 4 4 4 4 3
5 7 9 9 7 11 11 11 9 8 6 5 5 7 5 5 5 8 8 11 12 7 11 11 9 6 5 4 4 4 3 3 4 4 4 4 4 4 4 5 3 3 3 3
6 8 11 9 9 8 8 7 7 5 4 4 5 5 6 5 7 8 11 9 9 13 14 12 8 5 5 4 3 4 4 4 4 4 4 4 4 4 3 4 3 3 3 3
7 7 11 8 6 5 4 4 4 4 3 4 5 5 5 7 8 8 10 11 14 13 12 8 6 5 4 4 4 3 4 4 4 4 4 4 4 4 4 4 3 3 3 3
6 7 7 5 6 6 5 5 5 3 3 4 4 6 8 9 9 11 11 13 15 12 9 5 5 5 4 4 3 3 3 3 3 3 4 4 4 4 4 4 4 4 4 4
7 6 5 5 5 6 5 4 4 2 4 7 6 10 10 7 10 12 11 12 10 7 5 4 4 4 4 3 3 3 3 3 3 3 3 3 3 3 4 5 4 4 5 5